Home > Time Zones > World Clock > Weather > India > Tonk > Past weeks

Flag for India Weather past 2 weeks in Tonk, Rajasthan, India

Now
90 °F

Haze.


Feels Like: 87 °F
Forecast: 80 / 105 °F
Wind: No wind

Location: Jaipur / Sanganer


UV Index: 7 (High)

Visibility: 2 mi


Pressure: 29.80 "Hg

Humidity: 27%

Dew point: 52 °F

Location of TonkLocation

Historic Weather in Tonk

°F

Tonk temperature yesterday

Maximum temperature yesterday: 93 °F (at 3:00 PM)
Minimum temperature yesterday: 70 °F (at 5:00 AM)
Average temperature yesterday: 85 °F

Past Weeks' High & Low Weather Summary

 TemperatureHumidityPressure
High100 °F (Apr 13, 2:00 PM)83% (Apr 19, 5:30 AM)30.04 "Hg (Apr 19, 5:30 AM)
Low68 °F (Apr 19, 8:00 AM)6% (Apr 12, 2:00 PM)29.53 "Hg (Apr 17, 2:00 PM)
Average85 °F31%29.88 "Hg
* Reported Apr 9 9:00 PM — Apr 24 9:00 PM, Tonk, Weather by CustomWeather, © 2014

Note: Actual official high and low records may vary slightly from our data, if they occured in-between our weather recording intervals... More about our weather records

Advertising

Historic Weather Conditions — Data for Previous 24 hours

 ConditionsComfort  
Time TempWeatherWind HumidityBarometerVisibility
9:00 PM
Apr 24
90 °FHaze.No wind27%29.80 "Hg2 mi
8:00 PM93 °FHaze.No wind19%29.80 "Hg2 mi
7:00 PM97 °FScattered clouds.6 mph14%29.77 "Hg2 mi
6:00 PM97 °FScattered clouds.6 mph16%29.74 "Hg2 mi
5:00 PM99 °FScattered clouds.10 mph15%29.74 "Hg2 mi
4:00 PM99 °FScattered clouds.6 mph14%29.74 "Hg2 mi
3:00 PM97 °FScattered clouds.13 mph16%29.77 "Hg2 mi
2:00 PM97 °FHaze.12 mph19%29.80 "Hg2 mi
1:00 PM97 °FHaze.5 mph18%29.83 "Hg2 mi
12:00 PM95 °FHaze.7 mph16%29.86 "Hg2 mi
11:00 AM93 °FHaze.6 mph20%29.89 "Hg2 mi
8:00 AM84 °FHaze.No wind33%29.86 "Hg2 mi
7:00 AM79 °FHaze.No wind48%29.86 "Hg2 mi
6:00 AM75 °FPassing clouds.No wind44%29.83 "Hg2 mi
5:00 AM77 °FHaze.No wind42%29.83 "Hg2 mi
4:00 AM81 °FHaze.No wind34%29.80 "Hg2 mi
3:00 AM82 °FHaze.3 mph32%29.83 "Hg2 mi
2:00 AM82 °FHaze.1 mph35%29.83 "Hg2 mi
1:00 AM79 °FHaze.No wind39%29.86 "Hg2 mi
12:00 AM82 °FHaze.No wind37%29.86 "Hg2 mi
11:00 PM
Apr 23
82 °FHaze.No wind37%29.86 "Hg2 mi
10:00 PM86 °FHaze.No wind29%29.86 "Hg2 mi
Weather by CustomWeather, © 2014

See weather overview